Monroe, LA

6:27 AM CDT on August 23, 2017 (GMT -0500)
Monroe Regional

Weather History for KMLU - April, 2013

Change the Weather History Date:

Wednesday, April 17, 2013

  Actual Average Record
Temperature  
Mean Temperature 79 °F 66 °F  
Max Temperature 86 °F 78 °F 90 °F (1981)
Min Temperature 71 °F 54 °F 39 °F (1951)
Degree Days  
Heating Degree Days 0 2  
Month to date heating degree days 86 63  
Since 1 July heating degree days 2113 2207  
Cooling Degree Days 14 3  
Month to date cooling degree days 62 44  
Year to date cooling degree days 83 87  
Growing Degree Days 28 (Base 50)    
Moisture  
Dew Point 70 °F    
Average Humidity 74    
Maximum Humidity 93    
Minimum Humidity 55    
Precipitation  
Precipitation T in 0.14 in 1.26 in (1950)
Month to date precipitation 4.31 2.49  
Year to date precipitation 20.52 16.85  
Snow  
Snow 0.00 in - - ()
Month to date snowfall 0.0  
Since 1 July snowfall 0.3  
Snow Depth 0.00 in    
Sea Level Pressure  
Sea Level Pressure 29.99 in    
Wind  
Wind Speed 8 mph (SSE)    
Max Wind Speed 18 mph    
Max Gust Speed 25 mph    
Visibility 8 miles    
Events Rain    
T = Trace of Precipitation, MM = Missing Value Source: NWS Daily Summary

Daily Weather History Graph

Daily Weather History Graph

Search for Another Location

Airport or City:

Trip Planner

Search our weather history database for the weather conditions in past years. The results will help you decide how hot, cold, wet, or windy it might be!

Date:

Astronomy

Apr. 17, 2013 Rise Set
Actual Time 6:36 AM CDT 7:39 PM CDT
Civil Twilight 6:10 AM CDT 8:05 PM CDT
Nautical Twilight 5:40 AM CDT 8:35 PM CDT
Astronomical Twilight 5:09 AM CDT 9:06 PM CDT
Moon 11:56 AM CDT (4/17) 1:10 AM CDT (4/17)
Length of Visible Light 13h 54m
Length of Day
13h 03m
Waxing Crescent, 42% of the Moon is Illuminated
Apr 17
Waxing Crescent
Apr 18
First Quarter
Apr 25
Full
May 2
Last Quarter
May 9
New

Hourly Weather History & Observations

Time (CDT) Temp. Heat Index Dew Point Humidity Pressure Visibility Wind Dir Wind Speed Gust Speed Precip Events Conditions
12:53 AM 73.9 °F - 70.0 °F 87% 30.01 in 10.0 mi SSE 5.8 mph - N/A   Clear
1:48 AM 73.4 °F - 69.8 °F 88% 30.02 in 10.0 mi SSE 3.5 mph - N/A   Mostly Cloudy
1:53 AM 73.9 °F - 70.0 °F 87% 30.02 in 9.0 mi SSE 3.5 mph - N/A   Mostly Cloudy
2:17 AM 73.4 °F - 69.8 °F 88% 30.01 in 8.0 mi Variable 3.5 mph - N/A   Scattered Clouds
2:53 AM 73.0 °F - 70.0 °F 90% 30.00 in 8.0 mi Variable 4.6 mph - N/A   Clear
3:53 AM 73.0 °F - 70.0 °F 90% 30.01 in 7.0 mi SSE 3.5 mph - N/A   Scattered Clouds
4:53 AM 73.0 °F - 70.0 °F 90% 30.02 in 8.0 mi Variable 4.6 mph - N/A   Overcast
5:06 AM 73.4 °F - 69.8 °F 88% 30.02 in 8.0 mi Calm Calm - N/A   Overcast
5:37 AM 73.4 °F - 69.8 °F 88% 30.02 in 7.0 mi SE 3.5 mph - N/A   Overcast
5:53 AM 73.0 °F - 70.0 °F 90% 30.02 in 7.0 mi Calm Calm - N/A   Overcast
6:53 AM 71.1 °F - 70.0 °F 96% 30.04 in 5.0 mi Calm Calm - N/A   Mostly Cloudy
7:53 AM 73.0 °F - 70.0 °F 90% 30.06 in 6.0 mi SSE 5.8 mph - N/A   Scattered Clouds
8:27 AM 73.4 °F - 69.8 °F 88% 30.06 in 6.0 mi SSE 4.6 mph - 0.00 in Rain Light Rain
8:53 AM 73.4 °F - 69.8 °F 88% 30.06 in 6.0 mi Variable 4.6 mph - N/A   Overcast
9:00 AM 73.4 °F - 69.8 °F 88% 30.06 in 7.0 mi SE 3.5 mph - N/A   Mostly Cloudy
9:53 AM 75.9 °F - 71.1 °F 85% 30.06 in 8.0 mi Variable 4.6 mph - N/A   Overcast
10:06 AM 75.2 °F - 69.8 °F 83% 30.06 in 8.0 mi Variable 4.6 mph - N/A   Overcast
10:32 AM 75.2 °F - 69.8 °F 83% 30.06 in 7.0 mi SE 6.9 mph - N/A   Overcast
10:39 AM 75.2 °F - 69.8 °F 83% 30.06 in 7.0 mi SSE 5.8 mph - N/A   Overcast
10:53 AM 75.9 °F - 70.0 °F 82% 30.05 in 7.0 mi Variable 6.9 mph - N/A   Mostly Cloudy
11:11 AM 77.0 °F - 69.8 °F 78% 30.05 in 7.0 mi SSE 4.6 mph - N/A   Mostly Cloudy
11:53 AM 78.1 °F - 70.0 °F 76% 30.02 in 6.0 mi SSE 8.1 mph 17.3 mph N/A   Haze
12:00 PM 78.8 °F - 69.8 °F 74% 30.02 in 8.0 mi SE 9.2 mph - N/A   Mostly Cloudy
12:53 PM 80.1 °F 83.6 °F 71.1 °F 74% 30.01 in 9.0 mi South 8.1 mph - N/A   Mostly Cloudy
1:53 PM 84.0 °F 89.0 °F 71.1 °F 65% 29.98 in 10.0 mi SSE 12.7 mph 20.7 mph N/A   Mostly Cloudy
2:53 PM 84.9 °F 88.8 °F 69.1 °F 59% 29.94 in 10.0 mi SSE 10.4 mph 19.6 mph N/A   Mostly Cloudy
3:53 PM 86.0 °F 90.1 °F 69.1 °F 57% 29.90 in 10.0 mi South 12.7 mph 19.6 mph N/A   Mostly Cloudy
4:53 PM 86.0 °F 89.4 °F 68.0 °F 55% 29.88 in 10.0 mi South 13.8 mph 18.4 mph N/A   Mostly Cloudy
5:53 PM 84.0 °F 86.5 °F 66.9 °F 56% 29.87 in 10.0 mi South 12.7 mph 19.6 mph N/A   Mostly Cloudy
6:53 PM 82.0 °F 84.5 °F 66.9 °F 60% 29.85 in 10.0 mi South 11.5 mph 21.9 mph N/A   Partly Cloudy
7:53 PM 80.1 °F 82.3 °F 66.9 °F 64% 29.85 in 10.0 mi South 9.2 mph - N/A   Clear
8:53 PM 79.0 °F - 68.0 °F 69% 29.86 in 10.0 mi SSE 6.9 mph - N/A   Partly Cloudy
9:53 PM 78.1 °F - 70.0 °F 76% 29.86 in 10.0 mi SSE 12.7 mph 21.9 mph N/A   Clear
10:53 PM 77.0 °F - 70.0 °F 79% 29.85 in 10.0 mi SSE 15.0 mph 18.4 mph N/A   Scattered Clouds
11:53 PM 75.9 °F - 70.0 °F 82% 29.86 in 10.0 mi SSE 12.7 mph 20.7 mph N/A   Clear